Tracking 17925 objects as of 22-January-2017
HD Live streaming from Space Station
objects crossing your sky now

DELTA 1 DEB

Track DELTA 1 DEB now!
10-day predictions


NORAD ID: 2888
Int'l Code: 1965-089D
Perigee: 1,158.4 km
Apogee: 2,332.0 km
Inclination: 59.2 °
Period: 121.3 minutes
Semi major axis: 8116 km
RCS: 0.0459 m2 (small)
Launch date: November 6, 1965
Source: United States (US)
Launch site: AIR FORCE EASTERN TEST RANGE (AFETR)

Note: This is SATELLITE DEBRIS
Your satellite tracking list
Your tracking list is empty





NASA's NSSDC Master Catalog

Two Line Element Set (TLE):
1 02888U 65089D   17021.27873604 -.00000091  00000-0 -11100-3 0  9990
2 02888  59.2001  47.9131 0722981 109.0824 339.6487 11.87338084167123
Source of the keplerian elements: AFSPC